Regional Weather Roundup
Issued by NWS

Home | Current Version | Previous Version | Graphics & Text | Print | Product List | Glossary On
Versions: 1 2 3 4 5 6 7 8 9 10 11 12 13 14 15 16 17 18 19 20 21 22 23 24 25 26 27 28 29 30 31 32 33 34 35 36 37 38 39 40 41 42 43 44 45 46 47 48 49 50
000
ASUS44 KMEG 300800
RWRTN
TENNESSEE HOURLY STATE WEATHER ROUNDUP
NATIONAL WEATHER SERVICE MEMPHIS TN
300 AM CDT MON MAR 30 2015

TNZ002-004-019-021-049-052-054-088>092-300900-
WEST TENNESSEE

CITY           SKY/WX    TMP DP  RH WIND       PRES   REMARKS
MEMPHIS INTL   CLOUDY    58  53  84 N3        30.08R
NWS MEMPHIS      N/A     55 N/A N/A MISG        N/A
JACKSON        CLOUDY    51  50  96 CALM      30.08R
DYERSBURG      CLEAR     54  37  54 N7        30.09S
UNION CITY     CLEAR     48  48 100 N6        30.06S
PARIS          CLEAR     45  45 100 CALM      30.08R
LEXINGTON      MOCLDY    48  48 100 CALM      30.06S
SAVANNAH       CLOUDY    52  52 100 CALM      30.05F
$$

TNZ008-025-027-028-033-062-065-066-300900-
NORTH MIDDLE TENNESSEE

CITY           SKY/WX    TMP DP  RH WIND       PRES   REMARKS
NASHVILLE      CLOUDY    50  48  93 CALM      30.06F
CLARKSVILLE    PTCLDY    50  45  83 NW7       30.05F
COOKEVILLE     CLOUDY    46  45  93 CALM      30.08R
CROSSVILLE     LGT RAIN  47  42  83 NW10      30.08R
$$

TNZ061-075-076-078-094-096-097-300900-
SOUTH MIDDLE TENNESSEE

CITY           SKY/WX    TMP DP  RH WIND       PRES   REMARKS
FAYETTEVILLE   CLOUDY    48  46  93 S7        30.05F
TULLAHOMA      CLOUDY    48  46  93 S7        30.05F
WINCHESTER     CLOUDY    50  48  93 S6        30.08F
COLUMBIA       CLOUDY   N/A N/A N/A CALM      30.06S
SHELBYVILLE    CLOUDY    48  48 100 N3        30.06F
$$

TNZ017-018-042-046-047-300900-
NORTHEAST TENNESSEE

CITY           SKY/WX    TMP DP  RH WIND       PRES   REMARKS
TRI CITIES     LGT RAIN  44  34  67 N3        30.05S
ELIZABETHTON   DRIZZLE   39  27  60 CALM      30.05S
$$

TNZ012-013-036-069-073-074-300900-
CENTRAL EAST TENNESSEE

CITY           SKY/WX    TMP DP  RH WIND       PRES   REMARKS
KNOXVILLE      CLOUDY    55  32  41 W15       30.02F
OAK RIDGE      LGT RAIN  53  38  56 W7G17     30.07F
GATLINBURG     CLOUDY    43  30  61 CALM      30.02F
$$

TNZ083-085-099-300900-
SOUTHEAST TENNESSEE

CITY           SKY/WX    TMP DP  RH WIND       PRES   REMARKS
CHATTANOOGA    RAIN      52  39  61 NW5       30.08S
$$

SKY/WX REPORTED AS FAIR MEANS FEW OR NO CLOUDS BELOW
12 THOUSAND FEET.




USA.gov is the U.S. government's official web portal to all federal, state and local government web resources and services.